Weather in Trier

Germany     49°45′38″N   6°39′11″E
temp.,
°C
wind,
m/s
gust,
m/s
humid.,
%
clouds,
%
prec.,
mm/h
press.,
hPa
HPBL,
m
10 may, mon
mon1023:00+17ssw5135818 0.0 1004728
02:00+16s4136980 0.1 1004640
05:00+16ssw51663100 0.2 10031285
08:00+12ssw4109597 2.4 1007628
11:00+14ssw6118288 0.1 1008856
14:00+15ssw6974100 0.3 10101074
17:00+13ssw4887100 0.4 1009686
20:00+11ssw2795100 0.9 1009395
11 may, tue
tue1123:00+10ssw1299100 2.1 101081
02:00+10ssw1198100 6.5 101141
05:00+9nne1196100 6.0 101022
08:00+10nnw1196100 6.1 101075
11:00+10sw1196100 0.1 1010120
14:00+12nw1187100 0.3 1010424
17:00+12w1290100 0.4 1010355
20:00+11w2593100 0.7 1010326
12 may, wed
wed1223:00+10sw2496100 0.1 1012137
02:00+9sw2397100 0.1 1012106
05:00+9wsw2798100 0.9 1012350
08:00+9w2495100 1.2 1013315
11:00+10wnw2389100 0.4 1013659
14:00+14wnw2258100 0.6 10111314
17:00+12n2281100 0.8 1012507
20:00+11ne1292100 1.8 101260
13 may, thu
thu1323:00+9ene1194100 0.1 101212
02:00+8ne1194100 0.1 101111
05:00+7n009598 0.0 101011
08:00+9wnw0193100 0.0 1010120
11:00+11w2384100 0.1 1009625
14:00+13wnw3473100 1.3 10081157
17:00+12nnw2487100 2.1 1007483
20:00+9n129599 3.9 1008123
14 may, fri
fri1423:00+8ne0098100 1.4 100835
02:00+8nnw0099100 2.1 100827
05:00+8sw119997 0.1 100860
08:00+8sw1297100 0.2 1008146
11:00+10w3593100 0.6 1009568
14:00+12nw3482100 1.9 10091043
17:00+14nw2368100 0.9 10091207
20:00+11nne1290100 2.0 101032